Regional Weather Roundup
Issued by NWS Sterling, VA

Home | Current Version | Previous Version | Graphics & Text | Print | Product List | Glossary On
Versions: 1 2 3 4 5 6 7 8 9 10 11 12 13 14 15 16 17 18 19 20 21 22 23 24 25 26 27
000
ASUS41 KLWX 271611
RWRLWX

REGIONAL WEATHER ROUNDUP
NATIONAL WEATHER SERVICE BALTIMORE MD/WASHINGTON DC
1200 PM EDT MON MAR 27 2017

Note: "FAIR" indicates few or no clouds below 12,000 feet
with no significant weather and/or obstructions to visibility.
 TC=TEMPERATURE CELSIUS

 * =Non NWS site. Station does not report precipitation (e.g. rain,
    snow, etc.), thunder, or fog.

DCZ001-MDZ009-015-VAZ040>042-051-053>054-271700-
WASHINGTON METRO

CITY           SKY/WX    TMP DP  RH WIND       PRES   REMARKS
WASHINGTON NAT CLOUDY    56  52  86 S7        30.06F
DULLES         CLOUDY    56  51  84 SW7       30.06S HAZE
ANDREWS AFB    CLOUDY    59  59 100 SW12      30.04F
FT BELVOIR     CLOUDY    57  52  84 VRB6      30.06F
QUANTICO       CLOUDY    52  52 100 S3        30.07F
COLLEGE PARK*  CLOUDY    54  50  87 CALM      30.06S
LEESBURG*      CLOUDY    54  54 100 CALM      30.06F FOG
MANASSAS*        N/A     59  54  83 SW7       30.06F

$$

MDZ006>007-011-014-271700-
BALTIMORE METRO

CITY           SKY/WX    TMP DP  RH WIND       PRES   REMARKS
BWI AIRPORT    CLOUDY    54  52  93 SW6       30.06F FOG
MD SCIENCE CTR   N/A     52  47  83 MISG      30.07F
MARTIN STATE   CLOUDY    50  50 100 SE3       30.09F FOG
ANNAPOLIS      CLOUDY    49  48  97 SE8       30.07F
FORT MEADE*    CLOUDY    54  50  87 CALM      30.08F

$$

MDZ012-015-019>023-271700-
MARYLAND EASTERN SHORE

CITY           SKY/WX    TMP DP  RH WIND       PRES   REMARKS
OCEAN CITY     MOSUNNY   68  54  60 SW15G23   30.09F
SALISBURY      CLOUDY    70  57  63 SW17      30.08F
BAY BRIDGE AP* CLOUDY    52  50  93 W3        30.07F FOG
CAMBRIDGE*     MOSUNNY   66  57  72 S9G17     30.06F
EASTON*        PTSUNNY   64  55  72 SW10      30.10F

$$

MDZ017>025-271700-
SOUTHERN MARYLAND

CITY           SKY/WX    TMP DP  RH WIND       PRES   REMARKS
PATUXENT RIVER CLOUDY    68  58  70 S17G24    30.05F
ST INIGOES     CLOUDY    67  57  70 S10       30.06F
LEONARDTOWN*   MOSUNNY   68  55  64 SW12      30.07F

$$

MDZ003>005-271700-
NORTH CENTRAL MARYLAND

CITY           SKY/WX    TMP DP  RH WIND       PRES   REMARKS
FREDERICK*     CLOUDY    54  54 100 SW5       30.09  FOG
HAGERSTOWN APT CLOUDY    51  49  92 W3        30.04S
WESTMINSTER*   CLOUDY    54  52  94 SW10      30.04F FOG

$$

MDZ501>502-271700-
WESTERN MARYLAND

CITY           SKY/WX    TMP DP  RH WIND       PRES   REMARKS
OAKLAND*       CLOUDY    54  52  94 SW12G20   30.04S
CUMBERLAND*    CLOUDY    52  50  93 CALM      30.08F

$$

VAZ025>031-271700-
SHENANDOAH VALLEY

CITY           SKY/WX    TMP DP  RH WIND       PRES   REMARKS
WINCHESTER*    CLOUDY    59  54  82 N7        30.03S
FRONT ROYAL*   MOSUNNY   72  57  60 W5        30.01S
LURAY*         SUNNY     70  59  68 S12G17    30.02S
NEW MARKET*    PTSUNNY   69  58  67 S9        30.03S
STAUNTON*      SUNNY     67  57  68 SW13      30.07F
WAYNESBORO*    MOSUNNY   67  58  73 SW12G20   30.07S

$$

WVZ021-048>050-054>055-271700-
EASTERN WEST VIRGINIA PANHANDLE

CITY           SKY/WX    TMP DP  RH WIND       PRES   REMARKS
MARTINSBURG    LGT RAIN  50  48  93 CALM      30.04F FOG
PETERSBURG*    CLOUDY    56  52  87 CALM      30.04F

$$

VAZ036>039-050-271700-
CENTRAL FOOTHILLS

CITY           SKY/WX    TMP DP  RH WIND       PRES   REMARKS
CHARLOTTESVILL MOSUNNY   67  58  72 SW10      30.06S
CULPEPER*      PTSUNNY   61  61  99 SW10      30.06S
ORANGE*        CLOUDY    61  55  82 SW15G21   30.07F
GORDONSVILLE*  CLOUDY    61  58  88 SW16      30.05F
WARRENTON*     CLOUDY    64  55  73 SW9       30.04F

$$

VAZ055>057-271700-
NORTH AND CENTRAL PIEDMONT

CITY           SKY/WX    TMP DP  RH WIND       PRES   REMARKS
FREDERICKSBRG* PTSUNNY   65  60  83 SW12G17   30.05F
STAFFORD*      CLOUDY    62  59  90 SW7       30.10F

$$

NCZ024-NYZ072-PAZ021-071-VAZ022-071-271700-
OTHER REGIONAL OBSERVATIONS

CITY           SKY/WX    TMP DP  RH WIND       PRES   REMARKS
NEW YORK CITY  CLOUDY    44  42  93 NE5       30.09F FOG
PHILADELPHIA   CLOUDY    49  47  93 SE3       30.07F FOG
PITTSBURGH     PTSUNNY   60  50  69 SW7G16    29.99F
ROANOKE        MOSUNNY   69  57  65 SE7       30.09F
RICHMOND       CLOUDY    69  58  67 SW17      30.08F
RALEIGH        PTSUNNY   71  60  68 SW15      30.13F

$$

ANZ530>537-271700-
MARINE OBSERVATIONS

STATION/POSITION TIME  TEMP    WIND        PRES
                       AIR SEA DIR/SP/G
                 (UTC) (F)     (DEG/KT/KT) (MB)
THOMAS PT LIGHT  1600   47 45  140/  4/  4   N/A
BALT KEY BRIDGE  1548   46     130/  2/  3 1018.2F
COVE POINT       1548   61     240/ 12/ 17 1018.5F
LEWISETTA        1548   65 51  220/  9/ 12 1018.0F
SOLOMONS ISLAND  1548          220/ 14/ 19   N/A
PINEY POINT      1548          240/  9/ 11   N/A

$$





USA.gov is the U.S. government's official web portal to all federal, state and local government web resources and services.